Location: ??????
(30.5519°N, 47.7720°E)
Time: 18:03:21
(UTC+00:00)

CZ-2C R/B - Pass Details

Date: 24 January 2021
Orbit: 785 x 870 km, 98.2° (Epoch: 01 March)

Event Time Altitude Azimuth Distance (km) Brightness Sun altitude
Exits shadow 16:29:04 - 359° (N) 2,623 5.2 -28.1°
Reaches altitude 10° 16:29:23 10° 358° (N) 2,505 5.1 -28.1°
Maximum altitude 16:34:42 47° 287° (WNW) 1,142 3.6 -29.3°
Drops below altitude 10° 16:40:01 10° 215° (SW) 2,507 5.6 -30.4°
Sets 16:42:29 0° 209° (SSW) 3,439 6.3 -30.9°
